Vorticity
11 5 4 6 8 7 10 5 2 3 2 8 8 6 7 9 12 13 13 10 9 10 11 11 12 15 16 16 11 10 10 11 13 9 12 11 14 21 22 28 26 22 32
7 9 8 9 9 8 6 3 2 5 8 5 6 6 10 11 8 7 6 7 8 10 11 12 12 12 13 11 9 9 12 13 11 12 14 9 5 -4 9 17 5 21 19
11 10 9 7 5 5 6 8 7 6 5 11 10 7 4 5 6 8 10 10 12 13 14 13 13 11 10 11 9 11 11 12 10 2 15 9 4 11 -4 10 10 27 30
8 7 8 8 8 8 11 12 11 8 6 6 8 9 9 10 13 13 12 13 13 13 11 11 11 11 11 11 11 13 12 7 13 8 4 3 10 -1 6 1 10 28 38
11 13 13 10 8 7 6 7 9 9 9 9 8 9 9 10 11 12 12 13 13 14 13 12 12 12 12 13 12 16 14 12 12 14 6 8 6 2 4 2 19 30 29
6 5 6 7 9 11 11 11 12 12 13 12 13 13 13 15 14 14 14 14 15 14 14 14 13 13 12 13 12 15 15 11 10 9 3 9 3 6 7 8 21 32 4
7 8 9 10 9 9 10 10 11 12 13 14 15 15 14 14 13 13 14 13 17 17 17 15 17 15 12 12 14 16 14 9 10 6 4 8 5 3 6 5 29 24 37
9 9 8 10 13 15 16 16 16 16 16 16 15 14 13 13 13 13 17 15 18 18 16 15 15 16 13 12 15 11 13 12 10 10 8 10 3 2 8 6 29 33 7
7 9 12 13 14 14 14 14 14 14 14 11 11 11 11 10 13 18 25 23 18 18 20 15 19 21 14 15 16 6 11 13 9 8 9 11 3 3 4 0 26 21 4
9 12 14 16 17 16 13 14 15 14 13 13 10 10 15 19 26 26 30 13 1 12 16 19 20 28 17 18 18 13 5 8 6 6 8 10 5 1 -1 5 8 35 20
19 16 14 13 14 13 14 18 15 12 11 15 20 25 26 29 37 34 23 5 30 9 8 16 24 27 16 15 16 17 12 13 15 6 5 8 7 4 2 7 3 26 32
14 17 17 14 12 16 17 13 12 19 24 27 25 26 29 23 17 20 34 41 -7 -10 19 15 9 17 13 11 13 15 15 13 10 5 8 8 7 4 3 1 1 2 43
17 15 11 14 16 15 10 18 26 21 18 18 18 23 32 30 32 19 22 34 39 24 42 13 8 14 14 11 12 13 14 12 12 11 9 5 6 6 2 4 1 4 26
14 10 14 13 13 8 24 25 19 16 15 17 9 27 32 28 37 37 38 29 25 19 4 13 9 4 11 16 13 12 12 10 5 12 19 7 7 7 7 0 5 4 8
12 14 11 13 8 23 27 17 14 15 19 13 13 35 33 36 32 26 -5 27 12 15 13 7 9 -2 3 28 11 11 11 8 13 10 9 9 9 7 9 5 2 3 2
13 13 12 9 19 26 18 12 15 20 12 13 28 33 33 30 13 18 26 18 8 12 17 8 9 8 -6 31 21 11 10 10 7 14 5 7 9 10 10 8 3 1 5
16 9 9 15 26 18 9 17 21 13 14 30 34 30 32 28 -2 19 17 12 5 7 18 30 12 9 18 12 17 3 21 13 10 4 19 14 5 6 8 12 11 7 1
8 12 11 23 21 8 17 18 13 16 30 32 34 30 27 31 1 5 13 14 13 10 6 9 10 11 18 7 -0 -13 24 17 12 6 7 8 13 15 14 11 14 9 0
8 8 16 26 10 16 17 12 19 27 26 28 33 33 27 18 20 -2 10 14 13 12 7 13 13 10 3 4 1 11 21 17 11 11 9 15 8 8 10 13 13 10 13
11 9 23 17 11 16 15 16 26 26 26 28 31 33 34 28 23 11 -1 10 13 11 8 7 7 12 14 8 6 -6 13 17 23 11 11 7 11 11 10 9 11 11 10
11 12 26 11 17 18 8 23 26 26 28 34 33 32 29 28 22 20 20 -4 6 14 10 10 11 8 10 15 8 12 3 22 13 22 13 12 8 9 11 11 10 12 13
9 16 22 12 18 11 13 26 26 25 29 33 33 32 30 30 22 18 21 22 5 2 7 13 11 9 11 14 8 -2 3 3 15 13 16 13 11 9 11 9 9 9 10
8 21 16 16 15 11 17 24 24 25 26 33 32 31 31 29 31 20 18 23 15 10 5 1 8 8 7 5 9 7 6 3 9 16 11 13 11 10 9 10 9 10 6
8 23 15 18 13 13 12 21 21 23 26 26 32 31 29 29 31 30 21 18 15 24 14 11 -1 5 7 5 7 -4 4 15 6 11 18 13 12 11 11 10 8 7 12
9 25 15 17 13 6 6 10 25 19 23 27 28 32 30 27 27 30 29 26 11 19 15 22 16 -4 4 7 -0 24 25 15 9 6 10 15 16 13 11 9 6 5 7
9 24 16 18 13 4 8 5 6 22 24 18 28 30 31 33 29 25 27 28 27 17 13 24 14 24 31 1 4 9 8 9 -3 1 -2 11 13 14 10 9 5 4 8
Height
5671 5665 5660 5657 5653 5649 5645 5640 5636 5632 5627 5622 5618 5613 5609 5606 5602 5599 5598 5595 5594 5592 5590 5588 5586 5582 5580 5577 5576 5574 5571 5568 5569 5581 5566 5562 5558 5555 5552 5547 5543 5534 5532
5657 5653 5647 5644 5639 5634 5629 5625 5619 5614 5608 5602 5597 5593 5589 5586 5582 5579 5576 5573 5571 5570 5568 5566 5564 5562 5561 5559 5556 5554 5552 5549 5550 5555 5552 5549 5545 5540 5537 5531 5524 5515 5505
5645 5640 5634 5628 5623 5618 5612 5607 5602 5596 5590 5585 5579 5575 5571 5567 5563 5559 5555 5552 5549 5548 5547 5545 5544 5542 5540 5538 5536 5535 5534 5534 5533 5534 5538 5532 5530 5525 5521 5512 5503 5493 5483
5631 5626 5621 5614 5608 5602 5595 5589 5583 5578 5572 5567 5562 5556 5551 5546 5542 5538 5534 5530 5528 5526 5524 5523 5523 5521 5520 5519 5518 5517 5516 5516 5516 5517 5518 5516 5514 5509 5501 5493 5485 5473 5468
5618 5612 5605 5598 5591 5585 5577 5570 5563 5557 5551 5544 5538 5532 5527 5523 5520 5516 5512 5508 5506 5504 5502 5501 5501 5501 5500 5499 5499 5499 5499 5500 5501 5501 5501 5500 5499 5494 5486 5478 5468 5461 5458
5602 5595 5588 5580 5572 5563 5555 5547 5539 5532 5525 5519 5512 5506 5501 5497 5494 5492 5486 5483 5482 5481 5480 5479 5479 5480 5480 5480 5481 5482 5483 5484 5485 5485 5487 5487 5486 5481 5474 5466 5455 5449 5447
5585 5576 5567 5559 5550 5541 5532 5523 5515 5507 5499 5493 5487 5480 5475 5471 5466 5464 5460 5457 5456 5457 5456 5456 5456 5458 5459 5461 5463 5465 5467 5468 5470 5471 5474 5473 5473 5468 5464 5456 5446 5438 5436
5567 5558 5548 5538 5528 5518 5509 5499 5490 5482 5474 5467 5462 5456 5448 5446 5441 5437 5435 5432 5431 5432 5432 5433 5435 5437 5439 5443 5446 5448 5450 5453 5455 5458 5461 5461 5460 5457 5453 5447 5438 5431 5429
5548 5538 5527 5516 5506 5496 5486 5476 5466 5458 5450 5441 5434 5429 5421 5419 5415 5411 5409 5408 5409 5409 5410 5411 5413 5416 5419 5424 5429 5433 5434 5437 5441 5444 5447 5448 5448 5446 5443 5438 5430 5423 5421
5528 5517 5505 5494 5483 5473 5462 5452 5443 5432 5424 5415 5408 5400 5393 5387 5386 5383 5384 5386 5387 5389 5390 5391 5394 5397 5401 5406 5412 5417 5420 5423 5428 5431 5434 5436 5436 5436 5434 5430 5425 5418 5414
5508 5497 5485 5474 5463 5451 5440 5428 5418 5408 5397 5388 5379 5372 5365 5359 5358 5357 5359 5363 5366 5369 5373 5375 5377 5380 5385 5390 5396 5402 5407 5409 5413 5417 5421 5423 5425 5425 5426 5422 5417 5412 5407
5492 5478 5466 5454 5441 5429 5418 5407 5394 5381 5370 5360 5351 5345 5339 5334 5333 5334 5335 5339 5344 5349 5357 5360 5363 5367 5370 5376 5382 5388 5393 5396 5400 5405 5409 5412 5414 5416 5416 5416 5412 5408 5403
5473 5461 5448 5436 5422 5408 5396 5383 5370 5357 5347 5338 5329 5321 5316 5311 5309 5311 5313 5317 5322 5331 5340 5344 5349 5354 5358 5362 5369 5375 5380 5384 5388 5392 5397 5401 5403 5406 5408 5408 5408 5405 5400
5457 5445 5431 5418 5405 5391 5375 5361 5350 5338 5329 5319 5310 5301 5295 5292 5290 5291 5295 5300 5307 5317 5324 5330 5336 5341 5346 5350 5356 5362 5367 5372 5376 5380 5385 5389 5393 5395 5399 5401 5400 5400 5397
5440 5427 5414 5400 5386 5373 5359 5344 5333 5321 5307 5298 5291 5283 5279 5279 5279 5280 5285 5290 5297 5305 5311 5318 5324 5329 5334 5338 5344 5349 5355 5361 5365 5370 5374 5379 5382 5385 5389 5393 5395 5394 5393
5425 5411 5397 5382 5368 5353 5343 5336 5319 5304 5293 5279 5269 5264 5266 5267 5270 5272 5276 5280 5286 5293 5300 5306 5312 5318 5323 5327 5333 5338 5344 5350 5355 5359 5364 5369 5373 5376 5380 5384 5388 5390 5390
5409 5395 5380 5365 5350 5337 5325 5313 5304 5295 5277 5264 5253 5249 5251 5256 5259 5262 5266 5272 5277 5283 5289 5295 5301 5306 5311 5317 5323 5328 5334 5339 5344 5349 5353 5358 5364 5367 5372 5375 5379 5382 5385
5395 5381 5365 5350 5335 5322 5308 5294 5281 5269 5259 5252 5240 5235 5236 5241 5246 5251 5256 5260 5267 5273 5277 5283 5289 5295 5301 5307 5313 5318 5322 5328 5333 5338 5343 5348 5354 5358 5362 5367 5372 5375 5378
5384 5368 5352 5337 5323 5308 5294 5280 5265 5251 5240 5231 5227 5222 5222 5226 5232 5238 5243 5249 5255 5260 5266 5272 5278 5284 5290 5296 5302 5307 5311 5317 5322 5328 5333 5339 5343 5349 5353 5357 5362 5366 5370
5373 5357 5341 5327 5313 5298 5283 5267 5251 5238 5226 5217 5211 5208 5208 5211 5216 5222 5229 5235 5241 5247 5253 5260 5266 5273 5279 5285 5291 5297 5302 5306 5311 5317 5323 5329 5334 5339 5345 5350 5354 5358 5363
5363 5348 5332 5318 5303 5288 5273 5256 5240 5226 5214 5204 5197 5194 5195 5197 5201 5206 5214 5221 5227 5234 5241 5248 5255 5262 5268 5274 5281 5287 5293 5297 5301 5307 5313 5319 5325 5331 5336 5341 5346 5350 5355
5355 5340 5324 5311 5296 5281 5265 5248 5232 5218 5205 5194 5187 5183 5183 5184 5188 5193 5199 5205 5213 5220 5227 5235 5242 5249 5256 5263 5270 5277 5283 5288 5292 5297 5303 5310 5316 5322 5327 5332 5338 5343 5347
5349 5333 5319 5305 5291 5277 5261 5244 5228 5213 5200 5189 5181 5176 5173 5174 5176 5180 5185 5191 5198 5205 5214 5222 5228 5235 5243 5251 5257 5265 5272 5278 5283 5288 5294 5300 5306 5313 5319 5324 5329 5334 5339
5344 5329 5314 5301 5288 5275 5260 5243 5227 5212 5199 5187 5178 5171 5168 5166 5166 5169 5173 5177 5183 5190 5198 5207 5214 5222 5229 5237 5245 5252 5261 5268 5274 5280 5285 5290 5296 5304 5310 5316 5321 5326 5330
5340 5325 5311 5299 5287 5275 5261 5245 5229 5214 5200 5188 5178 5169 5164 5160 5159 5159 5162 5165 5170 5176 5182 5189 5198 5207 5215 5223 5232 5240 5248 5256 5263 5271 5277 5282 5288 5294 5301 5307 5313 5318 5323
5336 5322 5309 5298 5287 5275 5262 5248 5233 5219 5205 5192 5180 5170 5163 5157 5154 5153 5153 5154 5158 5163 5167 5173 5180 5188 5198 5208 5217 5227 5236 5244 5252 5260 5268 5274 5279 5286 5292 5299 5305 5310 5314